Погода Гайны

Погода Гайны : погода сейчас, прогноз погоды и архив. Всё, что Вы хотите узнать о погоде Гайны!

Хотите узнать прогноз погоды Гайны? Тогда Вам сюда: Погода Гайны

Поиск расширенной информации на нашем сайте:

Другие новости

Новости СМИ2

Главная страница сайта

Новости сайта

03.07.2017

Напоминаем, что на нашем специализированном сайте Метеоцентр.Азия вы можете получить высокодетализированные автоматические прогнозы погоды по пунктам России, СНГ и мира в авиационном формате (включающие направление и скорость ветра, видимость, явления погоды, количество и форму облачности, нижнюю и верхнюю границу облачности).

Рекомендуем: оптовые базы в Спб

Погода Гайны - сегодня

Время (UTC), дата Ветер
(°,м/с) 
Видим.   Явления Облачность Т
(°С)
Тd
(°С)
f(%) Тe
(°С)
Pmin
(гПа)
dP
(гПа)
Po
(мм)
O2
(г/м3)
Тmin Tmax R s Состояние
почвы
15 14.10.17 160 (Ю) 20000 м    10/10 600 м 
[Sc]
+7 +3.9 81 +7  1012.8  742  291    +8.5  0.1     
18 14.10.17 180 (Ю) 20000 м    10/10 300 м 
[Sc]
+7.3 +3.4 76 +7  1012.3  -0.5  741  290           
21 14.10.17 150 (ЮВ) 20000 м    10/10 300 м кучево-дожд. 
[Cb calv]
+6.8 +3.5 79 +7  1011.5  -0.8  741  291           
00 15.10.17 150 (ЮВ) 20000 м    10/10 300 м 
[Sc]
+6.6 +3.3 79 +6  1010.6  -0.9  740  291           
03 15.10.17 140 (ЮВ) 20000 м    10/10 300 м 
[Sc]
+6.5 +3 78 +6  1009.7  -0.9  739  291  +6.4        влажная 
06 15.10.17 100 (В) 20000 м    10/8 600 м средняя 
[Sc|Ac und]
+6.6 +3.4 80 +6  1008.4  -1.3  738  290  +6         
09 15.10.17 140 (ЮВ) 20000 м    10/3 600 м средняя, верхняя 
[Sc|Ac und|Cs]
+11.1 +2.3 55 +10  1006.9  -1.1  738  285           
12 15.10.17 120 (ЮВ) 20000 м    10/1 600 м средняя, верхняя 
[Sc|Ac As|Cs]
+9.9 +2.4 60 +9  1006.3  -0.7  737  286           
15 15.10.17 120 (ЮВ) 20000 м    10/10 600 м 
[Sc]
+8.1 +2.6 68 +7  1006.7  0.3  737  288    +11.3       
18 15.10.17 120 (ЮВ) 10 км  слаб. ливневой дождь  10/10 300 м кучево-дожд. 
[Cb calv]
+6.5 +5.4 93 +6  1007  0.1  737  289           
21 15.10.17 110 (В) 20000 м  {ливн. осадки}  10/10 300 м кучево-дожд. 
[Cb calv]
+6.1 +6 99 +5  1007.7  0.6  738  290           
00 16.10.17 090 (В) 10 км  слаб. ливневой дождь  10/10 300 м кучево-дожд. 
[Cb calv]
+5.6 +5.5 99 +5  1008  0.3  738  291           
03 16.10.17 110 (В) 4000 м  слаб. ливневой дождь  10/8 300 м кучево-дожд., средняя 
[Cb calv|Ac As]
+5.4 +5.3 99 +4  1008.9  0.8  739  291  +5.4      влажная 
06 16.10.17 100 (В) 2000 м  дымка{ливн. осадки, дождь}  10/10 100 м 
[Frnb|Ns]
+5.4 +5.3 99 +4  1009.8  0.9  739  291  +5.3         
09 16.10.17 120 (ЮВ) 2000 м  слаб. дождь  10/10 100 м 
[Frnb|Ns]
+5.8 +5.7 99 +5  1010.4  0.7  740  291           
12 16.10.17 090 (В) 1000 м  слаб. дождь  10/10 100 м 
[Frnb|Ns]
+6.2 +6.1 99 +6  1010.8  0.4  740  291           
15 16.10.17 110 (В) 2000 м  слаб. дождь  10/10 100 м 
[Frnb|Ns]
+5.9 +5.8 99 +5  1011  0.1  740  291    +6.2     
18 16.10.17 150 (ЮВ) 4000 м  слаб. морось{дождь}  10/10 100 м 
[St]
+7.1 +7 99 +6  1010.5  -0.3  740  289           
21 16.10.17 150 (ЮВ) 10 км  {морось}  10/10 200 м 
[St]
+6.2 +6.1 99 +5  1009.8  -0.8  740  290           
00 17.10.17 160 (Ю) 10 км  {морось}  10/10 300 м 
[Sc]
+5.6 +5.5 99 +5  1007.8  -2  738  290           
03 17.10.17 170 (Ю) 10 км    10/8 600 м средняя 
[Sc|Ac und]
+5.4 +5.4 100 +4  1006.4  -1.4  737  290  +5.4    0.3    влажная 
06 17.10.17 180 (Ю) 10 км  слаб. ливневой дождь  10/8 300 м кучево-дожд., средняя 
[Cb calv|Ac As]
+5.7 +5.6 99 +4  1003.9  -2.4  735  289  +5.3         
09 17.10.17 180 (Ю) 10 км  слаб. ливневой дождь  10/6 300 м кучево-дожд., средняя, верхняя 
[Cb calv|Ac As|Ci fib]
+6.7 +6.6 99 +5  1001.4  -2.3  733  287           
12 17.10.17 190 (Ю) 20000 м  {ливн. осадки}  10/10 300 м кучево-дожд. 
[Cb calv]
+7.6 +7.5 99 +7  999.3  -2  732  286           
15 17.10.17 220 (ЮЗ) 20000 м  в посл. час ливневой дождь  10/8 300 м кучево-дожд., средняя 
[Cb calv|Ac As]
+5.7 +5.6 99 +4  998.6  -0.8  731  288    +7.7     
Время (UTC), дата Ветер
(°,м/с) 
Видим.   Явления Облачность Т
(°С)
Тd
(°С)
f(%) Тe
(°С)
Pmin
(гПа)
dP
(гПа)
Po
(мм)
O2
(г/м3)
Тmin Tmax R s Состояние
почвы

Для получения пояснительной информации подведите курсор к названию столбца.

ПОГОДА Гайны - архив

Всё, что Вы хотите узнать о погоде Гайны - удобно и подробно!

Выберите нужную дату (начиная с 1 января 2015* года) и нажмите кнопку "Найти".
Будут отображены архивные сводки погоды по пункту Гайны, начиная с указанной даты.


Отображать данные в формате CSV (для использования в таблицах Excel)


Внимание! Наш архив погоды предназначен исключительно для личного некоммерческого использования в познавательных целях. Если Вам необходимы официальные справки о состоянии погоды (для производственных, юридических, коммерческих и т.п. целей), обращайтесь в органы Росгидромета.

*Примечание: данная дата относится к архиву по метеостанциям СССР (Россия, СНГ, Балтия).
Архив по метеостанциям Зарубежной Европы и Азии (кроме Китая) хранится 10 дней, по другим регионам земного шара (Китай, Африка, Америка, Австралия, Океания) - 1 день.

Гайны - район местоположения метеостанции


Название, широта, долгота, высота метеостанции:
Гайны 60.3°ш. 54.3°д. 198 м над ур. моря [Российская Федерация]

Дополнительная информация

В oтличие oт бoльшинства пoгoдных сайтoв мы публикуем пoдрoбную метеoинфoрмацию в детальнoм прoфессиoнальнoм фoрмате.

Характеристики температуры и влажнoсти вoздуха измеряются на высoте 2 м в тени вдали oт зданий и деревьев.
Скoрoсть ветра измеряется на высoте 10 м (на урoвне рoста челoвека скoрoсть ветра ниже в 1.5-2 раза). Если метеoстанция нахoдится в гoрoде или в лесу, тo скoрoсть ветра занижена на 2-4 м/с пo сравнению с oткрытым местoм. Скoрoсть ветра над акватoриями крупных рек и oзёр, а также на вершинах хoлмoв на 2-5 м/с выше, чем в oбычных услoвиях.
Атмoсфернoе давление в разных тoчках местнoсти мoжет значительнo oтличаться oт давления на метеoстанции, в зависимoсти oт услoвий рельефа (при пoдъёме на 10 м давление пoнижается примернo на 1 мм рт.ст.).